EW1134 Weather Reports


time (UTC)temp
C
wind
direction
speed
KPH
gust
KPH
rain 1hr
cm
rain 24hr
cm
rain mn
cm
humidity
%
barometer
mb
20260505212503 14 220 3.2 6.4 0.00 0.00 0.00 64 1015.6
20260505212004 14 216 1.6 6.4 0.00 0.00 0.00 63 1015.6
20260505211504 14 229 1.6 6.4 0.00 0.00 0.00 63 1015.6
20260505211003 14 222 1.6 6.4 0.00 0.00 0.00 63 1015.8
20260505210504 14 240 1.6 6.4 0.00 0.00 0.00 63 1015.8
20260505210004 14 269 0.0 6.4 0.00 0.00 0.00 63 1016.0
20260505205504 14 275 1.6 8.0 0.00 0.00 0.00 63 1016.0
20260505205004 14 270 3.2 11.3 0.00 0.00 0.00 63 1015.6
20260505204504 14 273 1.6 11.3 0.00 0.00 0.00 63 1015.8
20260505204003 14 262 1.6 6.4 0.00 0.00 0.00 63 1015.7
20260505203004 14 270 1.6 8.0 0.00 0.00 0.00 63 1016.0
20260505202505 14 281 1.6 8.0 0.00 0.00 0.00 64 1015.9
20260505201004 14 270 0.0 6.4 0.00 0.00 0.00 62 1016.0
20260505200503 14 242 0.0 6.4 0.00 0.00 0.00 62 1016.0
20260505200004 14 219 0.0 6.4 0.00 0.00 0.00 62 1015.7
20260505195504 14 208 0.0 6.4 0.00 0.00 0.00 62 1015.8
20260505194505 14 219 1.6 4.8 0.00 0.00 0.00 61 1015.8
20260505194003 14 220 3.2 6.4 0.00 0.00 0.00 60 1015.9
20260505193504 15 225 4.8 8.0 0.00 0.00 0.00 61 1015.8
20260505193004 15 225 4.8 8.0 0.00 0.00 0.00 61 1015.7
20260505192004 15 229 1.6 6.4 0.00 0.00 0.00 62 1015.7
20260505191504 15 232 1.6 6.4 0.00 0.00 0.00 62 1015.7
20260505191004 16 232 1.6 6.4 0.00 0.00 0.00 61 1015.7
20260505190504 16 262 1.6 6.4 0.00 0.00 0.00 60 1015.6
20260505185503 16 225 4.8 11.3 0.00 0.00 0.00 58 1015.8
20260505185003 16 225 3.2 11.3 0.00 0.00 0.00 58 1015.5
20260505184503 16 225 0.0 9.7 0.00 0.00 0.00 59 1015.5
20260505183004 17 355 0.0 3.2 0.00 0.00 0.00 55 1015.5
20260505182004 17 218 0.0 4.8 0.00 0.00 0.00 52 1015.4
20260505181504 17 332 0.0 6.4 0.00 0.00 0.00 53 1015.2
20260505181003 18 353 1.6 6.4 0.00 0.00 0.00 51 1015.3
20260505180503 18 15 1.6 6.4 0.00 0.00 0.00 48 1015.1
20260505180004 18 49 1.6 6.4 0.00 0.00 0.00 46 1015.2
20260505175504 19 147 0.0 3.2 0.00 0.00 0.00 45 1015.1
20260505175003 19 282 1.6 4.8 0.00 0.00 0.00 42 1014.8
20260505174003 20 157 0.0 6.4 0.00 0.00 0.00 42 1014.9
20260505173004 20 82 0.0 4.8 0.00 0.00 0.00 39 1015.0
20260505171503 21 29 1.6 6.4 0.00 0.00 0.00 30 1014.9
20260505171004 22 45 0.0 4.8 0.00 0.00 0.00 27 1014.7
20260505165503 22 63 3.2 8.0 0.00 0.00 0.00 21 1014.7
20260505163503 23 48 3.2 6.4 0.00 0.00 0.00 16 1014.9
20260505163004 23 44 3.2 8.0 0.00 0.00 0.00 15 1015.0
20260505162504 23 37 4.8 9.7 0.00 0.00 0.00 15 1015.0
20260505162003 23 44 6.4 14.5 0.00 0.00 0.00 15 1014.8
20260505161504 24 28 6.4 16.1 0.00 0.00 0.00 14 1014.9
20260505161004 24 355 4.8 16.1 0.00 0.00 0.00 14 1014.8
20260505160503 24 352 3.2 8.0 0.00 0.00 0.00 12 1014.7
20260505153004 25 359 6.4 16.1 0.00 0.00 0.00 14 1015.1
20260505152504 25 18 8.0 20.9 0.00 0.00 0.00 14 1014.8
20260505152003 25 30 8.0 20.9 0.00 0.00 0.00 12 1014.7
20260505151504 25 12 8.0 17.7 0.00 0.00 0.00 12 1015.0
20260505151004 25 12 6.4 17.7 0.00 0.00 0.00 13 1015.0
20260505125003 26 327 11.3 22.5 0.00 0.00 0.00 12 1015.6
20260505124504 26 326 11.3 30.6 0.00 0.00 0.00 12 1015.5
20260505124004 27 315 8.0 30.6 0.00 0.00 0.00 12 1015.7
20260505123004 27 293 8.0 22.5 0.00 0.00 0.00 12 1015.6
20260505122003 27 303 8.0 22.5 0.00 0.00 0.00 11 1015.7
20260505121504 27 306 4.8 20.9 0.00 0.00 0.00 13 1016.0
20260505120504 27 291 8.0 17.7 0.00 0.00 0.00 12 1015.9
20260505120005 27 284 4.8 12.9 0.00 0.00 0.00 13 1016.0
20260505115503 27 265 4.8 17.7 0.00 0.00 0.00 14 1015.9
20260505115004 26 269 6.4 17.7 0.00 0.00 0.00 12 1016.0
20260505114003 26 33 6.4 20.9 0.00 0.00 0.00 15 1016.0
20260505113504 26 11 4.8 14.5 0.00 0.00 0.00 15 1016.1
20260505112504 26 350 9.7 22.5 0.00 0.00 0.00 16 1016.2
20260505112003 26 357 6.4 22.5 0.00 0.00 0.00 15 1016.1
20260505111504 27 299 3.2 11.3 0.00 0.00 0.00 17 1016.1
20260505111004 26 260 3.2 11.3 0.00 0.00 0.00 19 1016.3
20260505110504 26 270 4.8 14.5 0.00 0.00 0.00 20 1016.2
20260505102004 25 123 6.4 17.7 0.00 0.00 0.00 24 1016.5
20260505101003 25 18 8.0 17.7 0.00 0.00 0.00 24 1016.5
20260505100504 24 27 8.0 12.9 0.00 0.00 0.00 27 1016.6
20260505100004 24 40 8.0 16.1 0.00 0.00 0.00 27 1016.5
20260505095503 24 29 8.0 16.1 0.00 0.00 0.00 27 1016.8
20260505094504 24 15 8.0 16.1 0.00 0.00 0.00 29 1016.9
20260505094004 23 19 6.4 17.7 0.00 0.00 0.00 30 1017.1
20260505093004 23 5 8.0 19.3 0.00 0.00 0.00 30 1016.9
20260505092004 23 29 8.0 19.3 0.00 0.00 0.00 32 1016.9
20260505091504 23 29 8.0 19.3 0.00 0.00 0.00 30 1017.1
20260505090503 23 359 6.4 17.7 0.00 0.00 0.00 31 1017.1
20260505090004 22 354 6.4 14.5 0.00 0.00 0.00 33 1017.1
20260505085503 22 7 8.0 16.1 0.00 0.00 0.00 34 1017.1
20260505085004 22 9 8.0 16.1 0.00 0.00 0.00 34 1017.0
20260505084504 22 6 6.4 12.9 0.00 0.00 0.00 35 1017.2
20260505084003 22 19 6.4 12.9 0.00 0.00 0.00 36 1017.1
20260505083504 22 21 4.8 11.3 0.00 0.00 0.00 36 1017.2
20260505083004 22 11 4.8 11.3 0.00 0.00 0.00 37 1017.2
20260505082504 22 2 4.8 11.3 0.00 0.00 0.00 38 1017.4
20260505082004 21 13 4.8 9.7 0.00 0.00 0.00 39 1017.2
20260505081504 21 348 4.8 11.3 0.00 0.00 0.00 39 1017.3
20260505081004 21 4 6.4 11.3 0.00 0.00 0.00 39 1017.3
20260505080504 21 45 6.4 12.9 0.00 0.00 0.00 39 1017.2
20260505080004 21 44 6.4 12.9 0.00 0.00 0.00 38 1017.4
20260505075504 21 41 6.4 11.3 0.00 0.00 0.00 39 1017.3
20260505075003 21 35 6.4 11.3 0.00 0.00 0.00 39 1017.3
20260505074504 21 10 4.8 11.3 0.00 0.00 0.00 38 1017.4
20260505073504 22 32 4.8 9.7 0.00 0.00 0.00 40 1017.3
20260505073004 22 15 3.2 9.7 0.00 0.00 0.00 39 1017.3
20260505072504 22 4 1.6 9.7 0.00 0.00 0.00 40 1017.4
20260505072003 22 314 3.2 8.0 0.00 0.00 0.00 42 1017.4
20260505071504 21 226 1.6 8.0 0.00 0.00 0.00 43 1017.4
20260505071003 21 251 1.6 6.4 0.00 0.00 0.00 43 1017.3
20260505070501 21 291 0.0 6.4 0.00 0.00 0.00 45 1017.6
20260505070002 20 281 1.6 8.0 0.00 0.00 0.00 46 1017.3
20260505065501 20 267 1.6 8.0 0.00 0.00 0.00 46 1017.4
20260505065002 20 303 1.6 6.4 0.00 0.00 0.00 46 1017.4
20260505064502 20 327 1.6 6.4 0.00 0.00 0.00 48 1017.6
20260505064002 20 322 1.6 6.4 0.00 0.00 0.00 49 1017.2
20260505063502 19 331 1.6 6.4 0.00 0.00 0.00 52 1017.3
20260505063002 18 349 1.6 6.4 0.00 0.00 0.00 53 1017.4
20260505062502 18 355 1.6 6.4 0.00 0.00 0.00 55 1017.4
20260505061502 17 30 3.2 6.4 0.00 0.00 0.00 59 1017.5
20260505061002 17 12 3.2 8.0 0.00 0.00 0.00 59 1017.3
20260505060502 16 297 1.6 9.7 0.00 0.00 0.00 63 1017.5
20260505060002 16 297 3.2 9.7 0.00 0.00 0.00 64 1017.4
20260505055501 16 302 3.2 9.7 0.00 0.00 0.00 66 1017.5
20260505055001 15 277 1.6 8.0 0.00 0.00 0.00 67 1017.5
20260505054002 15 272 3.2 8.0 0.00 0.00 0.00 68 1017.4
20260505053502 14 268 1.6 8.0 0.00 0.00 0.00 69 1017.3
20260505053002 14 268 1.6 8.0 0.00 0.00 0.00 70 1017.5
20260505052502 13 263 1.6 8.0 0.00 0.00 0.00 71 1017.5
20260505052002 13 259 0.0 6.4 0.00 0.00 0.00 71 1017.4
20260505050503 12 268 3.2 9.7 0.00 0.00 0.00 73 1017.5
20260505041504 10 256 1.6 11.3 0.00 0.00 0.00 78 1017.2
20260505041004 9 248 1.6 11.3 0.00 0.00 0.00 78 1017.1
20260505040503 8 268 1.6 6.4 0.00 0.00 0.00 78 1017.2
20260505035503 8 290 1.6 6.4 0.00 0.00 0.00 77 1017.2
20260505035003 7 280 1.6 6.4 0.00 0.00 0.00 76 1017.2
20260505034504 7 278 1.6 6.4 0.00 0.00 0.00 76 1017.2
20260505034003 7 267 1.6 6.4 0.00 0.00 0.00 75 1017.0
20260505033004 7 247 1.6 6.4 0.00 0.00 0.00 74 1017.1
20260505032503 7 252 1.6 6.4 0.00 0.00 0.00 73 1017.1
20260505032003 7 292 1.6 6.4 0.00 0.00 0.00 72 1017.2
20260505031504 7 275 1.6 6.4 0.00 0.00 0.00 71 1017.1
20260505030503 7 231 0.0 3.2 0.00 0.00 0.00 69 1017.1
20260505025003 7 181 0.0 1.6 0.00 0.00 0.00 66 1017.0
20260505024504 7 181 0.0 3.2 0.00 0.00 0.00 66 1017.0
20260505024003 7 147 0.0 3.2 0.00 0.00 0.00 66 1017.1
20260505023503 7 135 0.0 3.2 0.00 0.00 0.00 66 1017.1
20260505023004 7 314 0.0 1.6 0.00 0.00 0.00 65 1017.3
20260505022504 7 271 0.0 6.4 0.00 0.00 0.00 66 1017.2
20260505022003 8 245 0.0 6.4 0.00 0.00 0.00 66 1017.1
20260505021504 7 226 1.6 4.8 0.00 0.00 0.00 66 1017.1
20260505021003 7 232 1.6 4.8 0.00 0.00 0.00 66 1017.1
20260505020503 7 242 1.6 4.8 0.00 0.00 0.00 66 1017.1
20260505020004 7 251 0.0 4.8 0.00 0.00 0.00 65 1017.4
20260505015503 7 252 0.0 3.2 0.00 0.00 0.00 65 1017.3
20260505015003 7 246 0.0 3.2 0.00 0.00 0.00 65 1017.3
20260505014504 7 244 0.0 3.2 0.00 0.00 0.00 64 1017.3
20260505014003 7 231 0.0 3.2 0.00 0.00 0.00 64 1017.3
20260505013503 7 222 0.0 3.2 0.00 0.00 0.00 63 1017.4
20260505013004 7 222 0.0 4.8 0.00 0.00 0.00 63 1017.4
20260505012503 7 211 0.0 4.8 0.00 0.00 0.00 63 1017.5
20260505012004 7 184 0.0 4.8 0.00 0.00 0.00 63 1017.5
20260505011504 7 187 1.6 6.4 0.00 0.00 0.00 62 1017.4
20260505011004 7 208 3.2 6.4 0.00 0.00 0.00 62 1017.6
20260505010504 7 220 3.2 6.4 0.00 0.00 0.00 62 1017.2
20260505010004 7 225 1.6 6.4 0.00 0.00 0.00 62 1017.4
20260505005504 7 225 0.0 4.8 0.00 0.00 0.00 62 1017.3
20260505005004 8 225 0.0 4.8 0.00 0.00 0.00 61 1017.4
20260505004503 8 232 1.6 8.0 0.00 0.00 0.00 61 1017.4
20260505004003 8 232 1.6 8.0 0.00 0.00 0.00 61 1017.6
20260505003503 8 255 3.2 9.7 0.00 0.00 0.00 60 1017.3
20260505003003 8 261 1.6 9.7 0.00 0.00 0.00 60 1017.4
20260505002503 8 228 1.6 6.4 0.00 0.00 0.00 60 1017.4
20260505002003 8 229 1.6 6.4 0.00 0.00 0.00 60 1017.6
20260505001504 8 229 1.6 6.4 0.00 0.00 0.00 59 1017.4
20260505001003 8 225 3.2 6.4 0.00 0.00 0.00 59 1017.6
20260505000503 8 227 3.2 8.0 0.00 0.00 0.00 59 1017.7
20260505000004 8 231 3.2 8.0 0.00 0.00 0.00 59 1017.6
20260504235503 8 250 3.2 8.0 0.00 0.00 0.00 59 1017.4
20260504235003 8 266 3.2 8.0 0.00 0.00 0.00 59 1017.5
20260504234504 8 263 3.2 11.3 0.00 0.00 0.00 59 1017.4
20260504234004 8 268 1.6 11.3 0.00 0.00 0.00 59 1017.4
20260504233504 8 258 3.2 8.0 0.00 0.00 0.00 60 1017.5
20260504233004 8 249 3.2 9.7 0.00 0.00 0.00 60 1017.6
20260504232503 8 263 1.6 9.7 0.00 0.00 0.00 60 1017.6
20260504232003 8 277 0.0 4.8 0.00 0.00 0.00 59 1017.8
20260504231003 8 203 0.0 4.8 0.00 0.00 0.00 58 1017.8
20260504230503 8 184 0.0 3.2 0.00 0.00 0.00 58 1017.9
20260504230003 8 203 0.0 3.2 0.00 0.00 0.00 57 1017.8
20260504225503 9 230 0.0 4.8 0.00 0.00 0.00 56 1018.1
20260504225003 9 246 0.0 4.8 0.00 0.00 0.00 56 1017.8
20260504224504 9 270 0.0 6.4 0.00 0.00 0.00 55 1017.9
20260504224004 9 276 1.6 6.4 0.00 0.00 0.00 55 1017.7
20260504223503 10 269 1.6 6.4 0.00 0.00 0.00 55 1017.8
20260504222003 10 269 3.2 11.3 0.00 0.00 0.00 55 1018.1
20260504221504 9 264 3.2 11.3 0.00 0.00 0.00 56 1018.1
20260504221003 9 260 3.2 11.3 0.00 0.00 0.00 56 1018.0
20260504215503 8 276 1.6 6.4 0.00 0.00 0.00 56 1018.1
20260504214504 9 259 1.6 6.4 0.00 0.00 0.00 56 1018.1
20260504214003 9 240 1.6 6.4 0.00 0.00 0.00 56 1018.1
20260504213503 9 231 3.2 8.0 0.00 0.00 0.00 55 1018.2
20260504213004 9 230 3.2 8.0 0.00 0.00 0.00 55 1018.1